Regional Weather Roundup
Issued by NWS

Home | Current Version | Previous Version | Graphics & Text | Print | Product List | Glossary On
Versions: 1 2 3 4 5 6 7 8 9 10 11 12 13 14 15 16 17 18 19 20 21 22 23 24 25 26 27 28 29 30 31 32 33 34 35 36 37 38 39 40 41 42 43 44 45 46 47 48 49 50
000
ASUS45 KTFX 242110
RWRMT
MONTANA REGIONAL WEATHER ROUNDUP
NATIONAL WEATHER SERVICE GREAT FALLS MT
300 PM MDT WED MAY 24 2017

NOTE: "FAIR" INDICATES FEW OR NO CLOUDS BELOW 12000 FEET WITH NO
SIGNIFICANT WEATHER AND/OR OBSTRUCTIONS TO VISIBILITY.

MTZ001>007-043-242200-
WEST OF THE DIVIDE

CITY           SKY/WX    TMP DP  RH WIND       PRES   REMARKS
KALISPELL      PTSUNNY   57  26  30 W21G33    29.57R
MISSOULA       MOSUNNY   60  21  22 W30G41    29.64R
BUTTE          SUNNY     59  10  14 W20G35    29.59F
MULLAN PASS    MOSUNNY   40  20  44 W9G26     29.70F
ANACONDA         N/A     57  12  17 W21G37    29.59F
DEER LODGE       N/A     57  16  19 W10G29    29.61F
EUREKA           N/A     55  21  26 W7G23     29.56F
HAMILTON         N/A     57  18  21 SW14G31   29.68S
PLAINS           N/A     60  26  27 SW13      29.68F
RONAN            N/A     58  21  24 SW21      29.71S
$$

MTZ008-052>055-242200-
SOUTHWEST MONTANA

CITY           SKY/WX    TMP DP  RH WIND       PRES   REMARKS
BOZEMAN        SUNNY     68  21  16 W31G44    29.45S
DILLON         SUNNY     67  23  19 W25G31    29.52S
W YELLOWSTONE  CLOUDY    70  30  23 SW26G39   29.53F
ENNIS          SUNNY     68  25  19 NW17G24   29.55S
THREE FORKS      N/A     69  15  12 W23       29.53F
TWIN BRIDGES     N/A     67  17  14 W23       29.58F
$$

MTZ009-010-012-014-046-048-049-054-242200-
EAST SLOPES AND CENTRAL MONTANA

CITY           SKY/WX    TMP DP  RH WIND       PRES   REMARKS
CUT BANK       SUNNY     57  17  21 W40G54    29.37R
GREAT FALLS    MOSUNNY   65  18  16 W35G52    29.40F
MALMSTROM AFB  MOSUNNY   63  17  16 W30G45    29.40F
HELENA         SUNNY     66  17  15 W25G39    29.52F
CHOTEAU          N/A     57  18  21 W33G47    29.42S
CONRAD           N/A     60  31  33 SW37      29.47S
$$

MTZ011-013-016-021-045-047-050-051-242200-
NORTH CENTRAL MONTANA

CITY           SKY/WX    TMP DP  RH WIND       PRES   REMARKS
HAVRE          SUNNY     66  13  12 W33G54    29.29S
LEWISTOWN      MOSUNNY   68  17  14 W25G38    29.40S
N BAR RANCH      N/A     66  14  13 NW38G49   29.38F
CHINOOK          N/A     70  16  12 W26G41    29.27S
FORT BENTON      N/A     66  16  14 CALM      29.37S
$$

MTZ017>020-022>027-061-062-242200-
NORTHEAST MONTANA

CITY           SKY/WX    TMP DP  RH WIND       PRES   REMARKS
GLASGOW        LGT RAIN  74  27  17 W18G32    29.24R
JORDAN           N/A     77  29  17 W29G38    29.31R
SIDNEY         SUNNY     78  41  26 SE26G35   29.24F
WOLF POINT     CLOUDY    80  34  19 W13G22    29.21F
MALTA          SUNNY     72  14  11 W22G39    29.25R
PLENTYWOOD       N/A     73  39  29 S18G31    29.26S
SCOBEY           N/A     71  39  31 W17       29.29S
$$

MTZ028>42-056>058-242200-
SOUTHCENTRAL AND SOUTHEAST MONTANA

CITY           SKY/WX    TMP DP  RH WIND       PRES   REMARKS
BAKER          SUNNY     77  42  28 S31G39    29.32F
BILLINGS       PTSUNNY   72  32  23 N28G37    29.33R
LIVINGSTON     CLOUDY    65  22  19 NW30G38   29.44R
MILES CITY     LGT RAIN  67  53  61 N31G49    29.26R
BIG TIMBER     MOSUNNY   70  28  21 W31G40    29.43R
EKALAKA          N/A     76  44  31 SE20      29.39F
FORSYTH          N/A     72  52  49 N15G21    29.27R
LAUREL           N/A     72  39  30 NW17      29.40R
ROUNDUP          N/A     70  34  26 NW6       29.35R
$$

REGIONAL REPORTS...DAKOTAS

CITY           SKY/WX    TMP DP  RH WIND       PRES   REMARKS
WILLISTON      SUNNY     77  39  25 SE25G35   29.29F
MINOT          SUNNY     72  33  24 S31G39    29.41F
DICKINSON      SUNNY     71  34  25 S30G39    29.37F
BEACH            N/A     75  39  27 SE30G39   29.33F
TIOGA            N/A     70  34  26 S29G44    29.35F
WATFORD CITY     N/A     75  37  25 S24G43    29.30F
BISMARCK       SUNNY     69  40  34 SE26G32   29.51F
GRAND FORKS    PTSUNNY   67  42  40 SE21G29   29.64F
FARGO          CLOUDY    64  42  44 S13G22    29.67F
BUFFALO SD       N/A     75  43  31 SE29G38   29.33F
RAPID CITY     SUNNY     76  45  33 S25G31    29.46F
$$

REGIONAL REPORTS...WYOMING/IDAHO/WASHINGTON

CITY           SKY/WX    TMP DP  RH WIND       PRES   REMARKS
GILLETTE       SUNNY     80  46  30 S13       29.40F
SHERIDAN       SUNNY     84  42  22 W8        29.33F
BUFFALO WY     MOSUNNY   81  34  18 W12       29.43F
CODY           SUNNY     80  28  15 W16G22    29.42F
YELLOWSTONE LA   N/A     61  29  29 W10G25    29.67S
IDAHO FALLS    MOSUNNY   74  34  23 SW36G52   29.60S
SALMON         SUNNY     68  18  14 NW23G33   29.52F
BOISE          SUNNY     72  21  14 NW21      29.71F
SPOKANE        MOSUNNY   61  24  24 W20G30    29.73F
$$

REGIONAL REPORTS...ALBERTA

CITY           SKY/WX    TMP DP  RH WIND       PRES   REMARKS
EDMONTON       RAIN      46  46 100 N40G56    29.27R FOG
CALGARY        LGT RAIN  36  34  93 W26G39    29.29R FOG     WCI  23
LETHBRIDGE     PTSUNNY   55  21  26 W39G48    29.28R
MEDICINE HAT   PTSUNNY   61  28  29 W24G35    29.22S
WATERTON GATE    N/A     48  19  32 SW32G53     N/A
CARDSTON         N/A     54  21  28 W24G40      N/A
MILK RIVER       N/A     57  21  24 W36G45      N/A
ONEFOUR          N/A     61  18  18 W24G38      N/A
$$

REGIONAL REPORTS...SASKATCHEWAN

CITY           SKY/WX    TMP DP  RH WIND       PRES   REMARKS
SWIFT CURRENT  MOSUNNY   64  30  27 W31G46    29.19
REGINA         LGT RAIN  63  52  67 SW20G26   29.23R
SASKATOON      PTSUNNY   70  41  35 SE14G23   29.05F
CYPRESS HILLS    N/A     54  25  32 W16G25      N/A
VAL MARIE        N/A     72  10   9 W39G49      N/A
ROCKGLEN         N/A     68  27  21 W30G44      N/A
ASSINIBOIA       N/A     54  48  82 N29G39      N/A
$$



USA.gov is the U.S. government's official web portal to all federal, state and local government web resources and services.